Location: Newark
(60.5925°N, 45.5911°E)
Time: 11:23:02
(UTC+00:00)

ISS - Pass Details

Date: 26 September 2019
Orbit: 411 x 421 km, 51.6° (Epoch: 18 October)

Event Time Altitude Azimuth Distance (km) Brightness Sun altitude
Rises 16:13:09 0° 232° (SW) 2,343 0.6 -11.3°
Reaches altitude 10° 16:15:45 10° 211° (SSW) 1,482 -0.8 -11.6°
Maximum altitude 16:17:56 17° 170° (S) 1,152 -1.8 -11.9°
Enters shadow 16:18:57 15° 147° (SSE) 1,231 -1.8 -12.0°
